Total_Precipitation_Accumulation
1.33 1.33 1.35 1.42 1.47 1.58 1.67 1.69 1.63 1.65 1.66 1.66 1.63 1.67 1.68 1.72 1.79 1.88 1.87 1.87 1.90 1.85 1.84 1.88 1.89 1.85 1.85 1.88 1.98 2.05 2.10 2.18 2.17 1.74 1.50 1.49 1.62 1.74 1.81 1.75 1.73 1.76 1.74
1.20 1.17 1.18 1.25 1.34 1.40 1.46 1.53 1.52 1.52 1.54 1.57 1.53 1.51 1.50 1.50 1.57 1.65 1.69 1.72 1.77 1.77 1.77 1.80 1.83 1.85 1.88 1.90 2.00 2.06 2.04 2.01 2.04 1.93 1.66 1.53 1.50 1.52 1.56 1.61 1.61 1.57 1.53
0.96 0.94 0.96 0.98 1.09 1.22 1.27 1.31 1.36 1.37 1.40 1.43 1.46 1.42 1.40 1.40 1.46 1.51 1.52 1.56 1.60 1.62 1.64 1.69 1.69 1.75 1.81 1.81 1.89 1.97 1.95 1.93 1.91 1.84 1.60 1.42 1.38 1.38 1.49 1.57 1.57 1.50 1.41
0.84 0.83 0.85 0.86 0.90 0.99 1.09 1.12 1.17 1.19 1.22 1.27 1.35 1.33 1.28 1.30 1.37 1.44 1.51 1.53 1.51 1.51 1.52 1.58 1.63 1.67 1.68 1.72 1.81 1.87 1.88 1.91 1.92 1.89 1.76 1.53 1.39 1.34 1.40 1.49 1.56 1.49 1.39
0.88 0.88 0.86 0.84 0.84 0.89 0.97 1.03 1.06 1.07 1.04 1.03 1.11 1.19 1.22 1.24 1.30 1.36 1.43 1.50 1.51 1.50 1.51 1.55 1.62 1.81 1.85 1.82 1.83 1.81 1.84 1.93 1.95 1.92 1.78 1.62 1.43 1.35 1.37 1.31 1.35 1.42 1.44
0.96 0.92 0.90 0.85 0.83 0.81 0.83 0.87 0.92 0.98 0.98 0.98 1.01 1.03 1.10 1.18 1.46 1.53 1.47 1.48 1.54 1.55 1.53 1.50 1.54 1.69 1.69 1.73 1.77 1.78 1.85 1.96 2.01 1.93 1.73 1.50 1.24 1.08 1.10 1.22 1.31 1.47 1.56
0.99 0.93 0.87 0.83 0.81 0.80 0.78 0.80 0.86 0.91 0.98 1.04 1.06 1.08 1.12 1.27 1.54 1.58 1.67 1.58 1.54 1.52 1.48 1.43 1.38 1.36 1.43 1.29 1.41 1.59 1.67 1.70 1.66 1.61 1.59 1.31 1.13 1.02 1.14 1.32 1.35 1.36 1.26
1.03 1.01 0.98 0.95 0.97 1.00 0.99 1.01 1.03 1.03 1.08 1.19 1.24 1.26 1.31 1.41 1.55 1.52 1.60 1.45 1.40 1.36 1.29 1.26 1.22 1.15 1.16 1.21 1.26 1.38 1.31 1.28 1.27 1.19 1.14 1.07 1.05 1.10 1.24 1.44 1.53 1.57 1.41
1.22 1.23 1.24 1.25 1.28 1.30 1.32 1.32 1.32 1.34 1.36 1.36 1.37 1.32 1.31 1.34 1.41 1.39 1.42 1.31 1.30 1.23 1.14 1.11 1.11 1.06 1.19 1.38 1.40 1.35 1.22 1.18 1.26 1.31 1.31 1.29 1.39 1.49 1.55 1.75 1.92 2.05 1.83
1.35 1.37 1.40 1.46 1.51 1.47 1.42 1.38 1.30 1.28 1.31 1.31 1.32 1.30 1.24 1.20 1.25 1.25 1.25 1.17 1.14 1.06 1.02 1.02 1.11 1.09 1.28 1.46 1.40 1.35 1.26 1.06 1.07 1.19 1.24 1.24 1.24 1.32 1.52 1.54 1.66 2.01 1.84
1.28 1.31 1.32 1.30 1.30 1.26 1.22 1.17 1.13 1.09 1.05 1.04 1.02 1.00 0.98 1.03 1.10 1.14 1.19 1.16 1.16 1.12 1.05 1.04 1.05 1.19 1.32 1.44 1.46 1.34 1.27 1.21 1.17 1.23 1.27 1.24 1.25 1.26 1.30 1.31 1.35 1.66 1.89
0.98 1.00 1.00 0.94 0.88 0.88 0.90 0.91 0.89 0.89 0.86 0.83 0.80 0.80 0.79 0.84 0.95 1.04 1.14 1.21 1.24 1.23 1.12 1.04 1.11 1.32 1.42 1.47 1.44 1.38 1.43 1.47 1.36 1.41 1.43 1.36 1.28 1.23 1.16 1.17 1.23 1.28 1.36
0.58 0.63 0.65 0.64 0.61 0.61 0.65 0.69 0.71 0.73 0.74 0.74 0.73 0.74 0.73 0.73 0.80 0.92 1.02 1.16 1.26 1.20 1.11 1.17 1.26 1.36 1.41 1.40 1.42 1.40 1.35 1.30 1.33 1.40 1.35 1.21 1.11 1.10 1.15 1.24 1.32 1.36 1.37
0.40 0.45 0.51 0.55 0.57 0.57 0.59 0.63 0.67 0.69 0.72 0.73 0.74 0.74 0.71 0.68 0.73 0.84 0.96 1.07 1.21 1.21 1.19 1.23 1.27 1.27 1.27 1.28 1.33 1.36 1.31 1.27 1.31 1.31 1.23 1.17 1.19 1.27 1.32 1.33 1.45 1.50 1.62
0.33 0.37 0.43 0.49 0.56 0.58 0.58 0.61 0.67 0.70 0.82 0.99 1.00 0.92 0.93 0.91 0.87 1.07 1.24 1.25 1.28 1.34 1.39 1.36 1.26 1.19 1.21 1.22 1.20 1.21 1.26 1.30 1.34 1.26 1.28 1.33 1.34 1.35 1.36 1.32 1.40 1.49 1.56
0.36 0.38 0.44 0.49 0.54 0.58 0.61 0.63 0.67 0.71 0.79 0.87 0.94 1.00 0.97 1.00 1.07 1.17 1.22 1.27 1.33 1.44 1.52 1.44 1.22 1.11 1.08 1.10 1.15 1.18 1.21 1.24 1.24 1.28 1.33 1.36 1.41 1.42 1.40 1.37 1.42 1.51 1.49
0.45 0.48 0.53 0.54 0.56 0.57 0.60 0.64 0.66 0.67 0.71 0.76 0.80 0.86 0.89 0.94 1.04 1.09 1.16 1.22 1.27 1.35 1.35 1.16 1.05 1.03 1.04 1.05 1.09 1.13 1.16 1.15 1.23 1.34 1.40 1.41 1.45 1.47 1.46 1.45 1.45 1.51 1.46
0.50 0.56 0.61 0.61 0.62 0.64 0.65 0.66 0.69 0.71 0.70 0.68 0.71 0.81 0.88 0.95 1.03 1.10 1.18 1.25 1.25 1.16 1.04 0.96 0.95 0.98 1.04 1.12 1.16 1.18 1.18 1.19 1.26 1.34 1.38 1.42 1.50 1.58 1.55 1.43 1.39 1.43 1.47
0.53 0.56 0.61 0.65 0.68 0.70 0.69 0.70 0.71 0.70 0.67 0.64 0.64 0.71 0.83 0.95 1.05 1.12 1.20 1.21 1.13 1.03 0.95 0.94 0.98 1.05 1.10 1.16 1.21 1.26 1.29 1.31 1.28 1.35 1.39 1.41 1.49 1.64 1.58 1.39 1.39 1.39 1.48
0.54 0.62 0.67 0.68 0.68 0.70 0.72 0.72 0.71 0.70 0.68 0.64 0.63 0.68 0.81 1.00 1.02 1.00 1.04 1.07 1.09 1.08 1.06 1.07 1.06 1.09 1.16 1.22 1.27 1.31 1.35 1.32 1.32 1.38 1.40 1.41 1.46 1.60 1.62 1.50 1.48 1.53 1.46
0.55 0.59 0.67 0.66 0.64 0.68 0.75 0.78 0.75 0.73 0.72 0.67 0.62 0.69 1.00 1.19 1.07 0.96 0.97 1.00 1.07 1.12 1.16 1.18 1.17 1.17 1.21 1.27 1.31 1.33 1.32 1.28 1.27 1.35 1.38 1.39 1.45 1.54 1.49 1.52 1.53 1.56 1.59
0.57 0.59 0.62 0.66 0.68 0.73 0.81 0.83 0.83 0.81 0.78 0.75 0.70 0.74 0.91 0.97 0.93 0.92 0.93 0.95 1.00 1.08 1.16 1.26 1.27 1.21 1.28 1.41 1.47 1.49 1.38 1.25 1.22 1.31 1.35 1.32 1.37 1.42 1.48 1.60 1.64 1.65 1.62
0.61 0.63 0.64 0.66 0.71 0.78 0.82 0.79 0.81 0.83 0.83 0.81 0.81 0.82 0.83 0.86 0.86 0.87 0.89 0.91 0.97 1.04 1.09 1.19 1.24 1.17 1.15 1.28 1.41 1.62 1.68 1.47 1.33 1.43 1.63 1.61 1.53 1.55 1.63 1.68 1.61 1.57 1.47
0.62 0.64 0.66 0.67 0.70 0.73 0.74 0.74 0.74 0.78 0.81 0.82 0.83 0.83 0.82 0.84 0.86 0.88 0.91 0.95 0.99 1.01 1.03 1.10 1.15 1.12 1.09 1.17 1.25 1.34 1.46 1.59 1.81 1.96 2.05 2.17 1.94 1.67 1.64 1.60 1.47 1.40 1.39
0.57 0.60 0.63 0.65 0.68 0.70 0.70 0.69 0.70 0.73 0.76 0.77 0.78 0.78 0.78 0.80 0.83 0.86 0.89 0.91 0.93 0.93 0.91 0.96 1.05 1.08 1.07 1.08 1.13 1.19 1.28 1.50 1.88 2.27 2.35 2.22 1.88 1.61 1.60 1.59 1.47 1.39 1.39
0.54 0.58 0.61 0.64 0.66 0.67 0.68 0.68 0.67 0.68 0.71 0.71 0.72 0.75 0.76 0.78 0.79 0.81 0.83 0.86 0.87 0.84 0.81 0.82 0.87 0.95 0.99 1.00 0.98 1.05 1.23 1.39 1.50 1.67 2.12 2.27 1.96 1.63 1.58 1.68 1.55 1.49 1.45